Date String (YYYY-MM-DD hh:mm:ss) UTC,Instrument flags,Ambient pressure (hPa),Sample flow (lpm),Bypass flow (lpm),Sample temperature (°C),Ambient temperature (°C),ASC tube jacket temperature (°C),LED temperature (°C),Box temperature (°C),Sample RH (%),Span deviation,Mass concentration (μg/m³),Mass concentration (μg/m³),Mass concentration (μg/m³)
DateTimeUTC,F1_M11,P_M11,Q1_M11,Q2_M11,T1_M11,T2_M11,T3_M11,T4_M11,T5_M11,U1_M11,ZSPAN_M11,X2_M11,X0_M11,X1_M11
2021-09-07 23:00:00,,0831.5,5.00,0.00,29.0,27.7,00.0,38.0,30.9,17.9,0001.2,0043.87,0069.48,0040.39
2021-09-07 23:01:00,,0831.5,5.00,0.00,29.0,28.0,00.0,38.0,31.0,17.7,0001.1,0043.86,0068.72,0040.38
2021-09-07 23:02:00,,0831.5,5.01,0.00,29.1,28.2,00.0,38.0,31.0,17.8,0001.1,0043.96,0069.33,0040.47
2021-09-07 23:03:00,,0831.5,5.00,0.00,29.1,27.4,00.0,38.0,30.8,17.9,0001.0,0043.96,0069.60,0040.48
2021-09-07 23:04:00,,0831.5,4.99,0.00,29.0,25.8,00.0,38.0,30.3,18.2,0000.9,0043.97,0068.84,0040.50
2021-09-07 23:05:00,,0831.5,5.00,0.00,28.9,25.7,00.0,38.0,30.3,18.3,0001.0,0043.97,0068.55,0040.48
2021-09-07 23:06:00,,0831.5,5.00,0.00,28.8,26.1,00.0,38.0,30.4,18.6,0001.1,0043.97,0068.63,0040.44
2021-09-07 23:07:00,,0831.5,5.00,0.00,28.8,26.5,00.0,37.9,30.5,18.6,0001.3,0044.04,0070.13,0040.41
2021-09-07 23:08:00,,0831.5,5.00,0.00,28.8,27.0,00.0,37.9,30.6,18.2,0001.5,0044.05,0070.41,0040.43
2021-09-07 23:09:00,,0831.5,5.01,0.00,28.9,27.4,00.0,37.9,30.7,17.8,0001.5,0043.91,0070.41,0040.36
2021-09-07 23:10:00,,0831.5,4.99,0.00,29.0,27.7,00.0,38.0,30.9,17.7,0001.7,0043.86,0070.71,0040.33
2021-09-07 23:11:00,,0831.5,5.01,0.00,29.0,28.0,00.0,38.0,31.0,17.6,0001.5,0043.82,0069.71,0040.31
2021-09-07 23:12:00,,0831.5,4.99,0.00,29.1,28.3,00.0,38.0,31.1,17.5,0001.4,0043.78,0069.42,0040.28
2021-09-07 23:13:00,,0831.5,5.02,0.00,29.2,28.3,00.0,38.0,31.1,17.4,0001.3,0043.76,0071.58,0040.22
2021-09-07 23:14:00,,0831.5,5.00,0.00,29.1,26.8,00.0,38.0,30.7,17.6,0001.7,0043.76,0071.47,0040.24
2021-09-07 23:15:00,,0831.5,4.99,0.00,29.0,25.5,00.0,38.0,30.3,17.5,0001.8,0043.77,0071.84,0040.21
2021-09-07 23:16:00,,0831.5,5.00,0.00,28.9,25.8,00.0,38.0,30.4,17.6,0001.8,0043.67,0071.88,0040.14
2021-09-07 23:17:00,,0831.5,5.00,0.00,28.9,26.2,00.0,38.0,30.5,17.8,0001.5,0043.60,0071.78,0040.12
2021-09-07 23:18:00,,0831.5,5.01,0.00,28.9,26.7,00.0,38.0,30.6,18.2,0001.3,0043.52,0070.96,0040.16
2021-09-07 23:19:00,,0831.5,4.98,0.00,28.9,27.2,00.0,38.0,30.7,18.0,0001.4,0043.44,0070.71,0040.10
2021-09-07 23:20:00,,0831.6,5.00,0.00,29.0,27.6,00.0,38.0,30.8,17.7,0001.3,0043.52,0071.69,0040.13
2021-09-07 23:21:00,,0831.5,5.00,0.00,29.0,27.9,00.0,38.0,31.0,17.7,0001.4,0043.56,0071.43,0040.13
2021-09-07 23:22:00,,0831.5,5.00,0.00,29.1,28.2,00.0,38.0,31.0,17.7,0001.7,0043.46,0071.69,0040.08
2021-09-07 23:23:00,,0831.5,5.00,0.00,29.2,28.3,00.0,38.1,31.1,17.6,0002.1,0043.46,0072.58,0040.05
2021-09-07 23:24:00,,0831.6,5.01,0.00,29.1,27.1,00.0,38.1,30.8,17.6,0002.2,0043.38,0070.31,0040.03
2021-09-07 23:25:00,,0831.5,5.00,0.00,29.0,25.7,00.0,38.0,30.3,17.6,0002.0,0043.22,0070.85,0039.94
2021-09-07 23:26:00,,0831.5,4.99,0.00,28.9,25.8,00.0,38.0,30.3,17.7,0001.9,0043.13,0070.46,0039.86
2021-09-07 23:27:00,,0831.5,5.01,0.00,28.9,26.2,00.0,38.0,30.4,17.9,0001.9,0043.16,0069.74,0039.84
2021-09-07 23:28:00,,0831.5,5.00,0.00,28.9,26.7,00.0,38.0,30.6,18.0,0002.1,0043.22,0069.74,0039.91
2021-09-07 23:29:00,,0831.5,4.99,0.00,28.9,27.1,00.0,38.0,30.7,17.9,0002.1,0043.20,0069.41,0039.87
2021-09-07 23:30:00,,0831.5,5.00,0.00,28.9,27.5,00.0,38.0,30.8,18.0,0002.2,0043.24,0069.65,0039.90
2021-09-07 23:31:00,,0831.5,5.00,0.00,29.0,27.8,00.0,38.0,30.9,17.9,0002.1,0043.18,0069.68,0039.90
2021-09-07 23:32:00,,0831.6,5.01,0.00,29.1,28.1,00.0,38.0,31.0,17.7,0002.3,0043.09,0069.84,0039.88
2021-09-07 23:33:00,,0831.6,5.00,0.00,29.1,28.3,00.0,38.0,31.1,17.8,0002.1,0043.10,0070.22,0039.89
2021-09-07 23:34:00,,0831.7,4.99,0.00,29.2,28.5,00.0,38.1,31.2,17.9,0002.0,0043.14,0070.37,0039.89
2021-09-07 23:35:00,,0831.7,5.01,0.00,29.3,28.7,00.0,38.1,31.3,18.0,0001.9,0043.08,0070.98,0039.83
2021-09-07 23:36:00,,0831.7,4.99,0.00,29.3,27.8,00.0,38.1,31.1,17.7,0002.0,0043.20,0071.03,0039.84
2021-09-07 23:37:00,,0831.6,5.01,0.00,29.2,26.0,00.0,38.1,30.6,17.6,0001.8,0043.24,0072.16,0039.87
2021-09-07 23:38:00,,0831.6,4.99,0.00,29.1,25.8,00.0,38.1,30.5,17.7,0001.8,0043.22,0073.18,0039.87
2021-09-07 23:39:00,,0831.6,5.00,0.00,29.0,26.2,00.0,38.1,30.6,17.9,0001.5,0043.14,0073.51,0039.77
2021-09-07 23:40:00,,0831.6,4.99,0.00,29.0,26.7,00.0,38.1,30.7,18.0,0001.6,0043.12,0073.70,0039.74
2021-09-07 23:41:00,,0831.6,4.99,0.00,29.0,27.2,00.0,38.1,30.8,17.9,0001.5,0043.03,0073.88,0039.66
2021-09-07 23:42:00,,0831.6,5.00,0.00,29.1,27.6,00.0,38.1,30.9,17.9,0001.8,0043.02,0073.57,0039.63
2021-09-07 23:43:00,,0831.6,5.00,0.00,29.1,27.9,00.0,38.1,31.0,18.2,0001.7,0042.96,0072.91,0039.57
2021-09-07 23:44:00,,0831.7,4.99,0.00,29.2,28.1,00.0,38.1,31.1,18.0,0001.9,0042.91,0072.36,0039.50
2021-09-07 23:45:00,,0831.6,5.00,0.00,29.2,27.6,00.0,38.1,30.9,17.5,0001.7,0042.84,0072.41,0039.45
2021-09-07 23:46:00,,0831.6,5.01,0.00,29.1,25.7,00.0,38.1,30.4,17.6,0001.5,0042.85,0072.40,0039.42
2021-09-07 23:47:00,,0831.6,4.99,0.00,28.9,25.5,00.0,38.1,30.3,17.9,0001.3,0042.77,0071.82,0039.33
2021-09-07 23:48:00,,0831.6,4.99,0.00,28.9,25.9,00.0,38.0,30.4,17.9,0001.4,0042.72,0071.67,0039.25
2021-09-07 23:49:00,,0831.6,5.00,0.00,28.9,26.4,00.0,38.0,30.5,18.1,0001.6,0042.70,0072.25,0039.19
2021-09-07 23:50:00,,0831.6,5.00,0.00,28.9,26.9,00.0,38.0,30.6,18.0,0001.7,0042.65,0070.85,0039.13
2021-09-07 23:51:00,,0831.7,5.00,0.00,28.9,27.3,00.0,38.0,30.8,18.1,0001.6,0042.64,0072.19,0039.09
2021-09-07 23:52:00,,0831.6,5.00,0.00,29.0,27.7,00.0,38.0,30.9,18.0,0001.4,0042.68,0070.66,0039.11
2021-09-07 23:53:00,,0831.6,4.99,0.00,29.1,28.0,00.0,38.0,31.0,17.7,0001.0,0042.68,0069.90,0039.10
2021-09-07 23:54:00,,0831.6,5.00,0.00,29.1,28.2,00.0,38.1,31.1,17.8,0000.7,0042.78,0070.40,0039.19
2021-09-07 23:55:00,,0831.5,4.99,0.00,29.2,28.4,00.0,38.1,31.2,17.6,0000.7,0043.05,0071.20,0039.33
2021-09-07 23:56:00,,0831.5,5.00,0.00,29.3,28.6,00.0,38.1,31.3,17.4,0000.7,0043.19,0071.81,0039.40
2021-09-07 23:57:00,,0831.5,5.01,0.00,29.3,28.7,00.0,38.2,31.3,17.4,0000.9,0043.33,0072.57,0039.53
2021-09-07 23:58:00,,0831.5,4.99,0.00,29.3,27.6,00.0,38.2,31.1,17.4,0001.2,0043.49,0072.73,0039.71
2021-09-07 23:59:00,,0831.6,5.01,0.00,29.2,25.9,00.0,38.2,30.6,17.3,0001.3,0043.66,0072.96,0039.82
